Stations météo

réclame
Mon MeteoGroup
Torino/Caselle, Italie (16059): Température de l'air & dewpoint: 16.02.2018 21:00:00 - 22.02.2018 21:00:00 (CET)Torino/Caselle, Italie (16059): Vitesse du vent: 16.02.2018 21:00:00 - 22.02.2018 21:00:00 (CET)Torino/Caselle, Italie (16059): Direction du vent: 16.02.2018 21:00:00 - 22.02.2018 21:00:00 (CET)Torino/Caselle, Italie (16059): reduced air pressure: 16.02.2018 21:00:00 - 22.02.2018 21:00:00 (CET)Torino/Caselle, Italie (16059): visibility: 16.02.2018 21:00:00 - 22.02.2018 21:00:00 (CET)Torino/Caselle, Italie (16059): Quantités de précipitations: 16.02.2018 21:00:00 - 22.02.2018 21:00:00 (CET)
Date & Time tt [°C] td [°C] ff [km/h] ff [knt] dd ppp [hPa] vv [km] rr [mm]
22.02.2018 21:00:00 3,0 1,0 8 4 W - 10 -
22.02.2018 20:00:00 3,0 2,0 8 4 W - 4,0 -
22.02.2018 19:00:00 2,3 1,4 11 6 NW 1009,3 4,0 -
22.02.2018 18:00:00 4,0 1,0 5 3 NNE - 4,0 -
22.02.2018 17:00:00 4,0 1,0 9 5 ENE - 4,0 -
22.02.2018 16:00:00 4,5 0,5 5 3 NE 1008,1 4,0 0,0
22.02.2018 15:00:00 3,0 2,0 5 3 WNW - 3,0 -
22.02.2018 14:00:00 3,0 1,0 9 5 WSW - 4,0 -
22.02.2018 13:00:00 2,4 1,6 9 5 W 1008,2 3,0 -
22.02.2018 12:00:00 3,0 1,0 4 2 - - 4,0 -
22.02.2018 11:00:00 2,0 0,0 2 1 - - 5 -
22.02.2018 10:00:00 2,1 -0,9 4 2 - 1007,5 2,5 0,0
22.02.2018 09:00:00 2,0 -1,0 4 2 NNE - 8 -
22.02.2018 08:00:00 1,0 -2,0 11 6 ESE - 9 -
22.02.2018 07:00:00 1,4 -2,5 9 5 WNW 1005,9 10 -
22.02.2018 06:00:00 1,0 -3,0 5 3 WNW - 10 -
22.02.2018 05:00:00 2,0 -3,0 4 2 WNW - 10 -
22.02.2018 04:00:00 2,6 -2,5 5 3 W 1006,3 10 0,0
22.02.2018 03:00:00 4,0 -3,0 2 1 - - 10 -
22.02.2018 02:00:00 4,0 -2,0 2 1 - - 10 -
22.02.2018 01:00:00 3,9 -2,0 11 6 N 1007,7 10 -
22.02.2018 00:00:00 4,0 -2,0 15 8 N - 10 -
21.02.2018 23:00:00 5,0 -2,0 15 8 NNE - 10 -
21.02.2018 22:00:00 5,1 -3,9 9 5 NE 1006,9 10 0,0
21.02.2018 21:00:00 6,0 -3,0 8 4 N - 10 -
21.02.2018 20:00:00 7,0 -5,0 5 3 W - 10 -
21.02.2018 19:00:00 7,6 -5,2 8 4 SSW 1006,9 10 -
21.02.2018 18:00:00 9,0 -7,0 5 3 SSE - 10 -
21.02.2018 17:00:00 10,0 -8,0 4 2 - - 10 -
21.02.2018 16:00:00 9,8 -8,4 5 3 - 1007,6 10 0,0
21.02.2018 15:00:00 10,0 -7,0 4 2 - - 10 -
21.02.2018 14:00:00 10,0 -8,0 4 2 - - 10 -
21.02.2018 13:00:00 8,5 -5,7 9 5 WSW 1009,6 7 -
21.02.2018 12:00:00 7,0 -2,0 5 3 SSW - 7 -
21.02.2018 11:00:00 5,0 0,0 5 3 S - 5 -
21.02.2018 10:00:00 4,5 0,1 4 2 - 1009,9 5 0,0
21.02.2018 09:00:00 2,0 0,0 4 2 - - 4,0 -
21.02.2018 08:00:00 1,0 -1,0 5 3 WSW - 6 -
21.02.2018 07:00:00 0,4 -1,8 5 3 S 1009,2 8 -
21.02.2018 06:00:00 3,0 -2,0 2 1 - - 10 -
21.02.2018 05:00:00 3,0 -1,0 4 2 WNW - 10 -
21.02.2018 04:00:00 3,1 -1,0 4 2 N 1009,3 8 0,0
21.02.2018 03:00:00 3,0 0,0 8 4 NNE - 7 -
21.02.2018 02:00:00 3,0 0,0 8 4 NE - 7 -
21.02.2018 01:00:00 3,5 -0,3 8 4 ENE 1009,5 10 -
21.02.2018 00:00:00 4,0 0,0 5 3 NE - 10 -
20.02.2018 23:00:00 5,0 0,0 5 3 NNE - 10 -
20.02.2018 22:00:00 4,6 0,2 8 4 N 1009,1 10 0,0
20.02.2018 21:00:00 5,0 -1,0 4 2 NE - 10 -
20.02.2018 20:00:00 5,0 -1,0 8 4 ENE - 10 -
20.02.2018 19:00:00 5,5 -1,8 4 2 NE 1007,4 10 -
20.02.2018 18:00:00 7,0 -2,0 5 3 ENE - 8 -
20.02.2018 17:00:00 7,0 -2,0 4 2 - - 7 -
20.02.2018 16:00:00 7,4 -1,9 4 2 - 1007,1 7 0,0
20.02.2018 15:00:00 7,0 -1,0 8 4 SE - 6 -
20.02.2018 14:00:00 7,0 -2,0 8 4 E - 6 -
20.02.2018 13:00:00 6,7 -1,8 5 3 SE 1008,8 4,5 -
20.02.2018 12:00:00 5,0 -1,0 8 4 S - 4,5 -
20.02.2018 11:00:00 5,0 0,0 4 2 - - 4,5 -
20.02.2018 10:00:00 4,4 0,4 2 1 - 1010,1 4,0 0,0
20.02.2018 09:00:00 3,0 0,0 4 2 WSW - 4,0 -
20.02.2018 08:00:00 2,0 0,0 2 1 - - 6 -
20.02.2018 07:00:00 2,3 0,7 4 2 ENE 1010,1 8 -
20.02.2018 06:00:00 3,0 0,0 2 1 - - 10 -
20.02.2018 05:00:00 3,0 0,0 4 2 ENE - 10 -
20.02.2018 04:00:00 2,9 -0,5 0 0 N 1010,7 - 0,0
20.02.2018 03:00:00 3,0 0,0 5 3 NNE - 10 -
20.02.2018 02:00:00 3,0 0,0 5 3 N - 10 -
20.02.2018 01:00:00 3,0 0,1 5 3 NNE 1012,6 10 -
20.02.2018 00:00:00 3,0 0,0 9 5 N - 10 -
19.02.2018 23:00:00 3,0 0,0 8 4 N - 10 -
19.02.2018 22:00:00 3,1 0,3 5 3 NNE 1013,7 10 0,0
19.02.2018 21:00:00 4,0 0,0 5 3 NE - 10 -
19.02.2018 20:00:00 4,0 0,0 5 3 ENE - 10 -
19.02.2018 19:00:00 4,8 0,5 5 3 NE 1014,5 10 -
19.02.2018 18:00:00 5,0 0,0 8 4 E - 10 -
19.02.2018 17:00:00 6,0 0,0 9 5 ENE - 10 -
19.02.2018 16:00:00 6,2 -0,9 5 3 E 1015,2 10 0,0
19.02.2018 15:00:00 6,0 -1,0 5 3 E - 10 -
19.02.2018 14:00:00 6,0 0,0 8 4 NE - 10 -
19.02.2018 13:00:00 6,2 -0,2 11 6 E 1017,5 10 -
19.02.2018 12:00:00 6,0 0,0 9 5 ENE - 10 -
19.02.2018 11:00:00 5,0 -1,0 5 3 ESE - 10 -
19.02.2018 10:00:00 4,7 1,4 4 2 - 1018,8 10 0,0
19.02.2018 09:00:00 4,0 2,0 4 2 - - 10 -
19.02.2018 08:00:00 3,0 1,0 4 2 N - 10 -
19.02.2018 07:00:00 3,3 1,2 5 3 NNW 1019,2 10 -
19.02.2018 06:00:00 3,0 2,0 9 5 NNW - 10 -
19.02.2018 05:00:00 3,0 2,0 11 6 NNW - 10 -
19.02.2018 04:00:00 3,4 2,2 11 6 N 1019,8 8 0,0
19.02.2018 03:00:00 3,0 3,0 9 5 NNW - 7 -
19.02.2018 02:00:00 3,0 3,0 9 5 N - 3,0 -
19.02.2018 01:00:00 4,1 3,0 9 5 NW 1021,0 6 -
19.02.2018 00:00:00 4,0 3,0 8 4 NNW - 6 -
18.02.2018 23:00:00 4,0 3,0 4 2 - - 5 -
18.02.2018 22:00:00 4,4 3,8 4 2 - 1021,4 2,8 0,0
18.02.2018 21:00:00 5,0 4,0 8 4 WNW - 2,8 -
18.02.2018 20:00:00 5,0 4,0 11 6 NNW - 3,0 -
18.02.2018 19:00:00 4,9 3,1 5 3 NW 1021,0 3,5 -
18.02.2018 18:00:00 4,0 3,0 2 1 - - 4,0 -
18.02.2018 17:00:00 4,0 3,0 5 3 NE - 5 -
18.02.2018 16:00:00 3,8 2,9 5 3 N 1020,1 2,2 0,0
18.02.2018 15:00:00 3,0 3,0 8 4 E - 1,4 -
18.02.2018 14:00:00 3,0 3,0 5 3 NE - 1,2 -
18.02.2018 13:00:00 2,9 2,9 8 4 NNE 1019,6 0,6 -
18.02.2018 12:00:00 3,0 3,0 8 4 ESE - 0,8 -
18.02.2018 11:00:00 2,0 2,0 2 1 - - 0,7 -
18.02.2018 10:00:00 1,8 1,8 4 2 - 1018,4 0,2 0,0
18.02.2018 09:00:00 1,0 1,0 8 4 WSW - 0,1 -
18.02.2018 08:00:00 1,0 1,0 5 3 WNW - 0,1 -
18.02.2018 07:00:00 1,7 1,7 5 3 WNW 1017,3 0,1 -
18.02.2018 06:00:00 2,0 2,0 2 1 - - 0,1 -
18.02.2018 05:00:00 2,0 2,0 4 2 - - 0,1 -
18.02.2018 04:00:00 2,6 2,6 5 3 WSW 1016,6 0,2 0,0
18.02.2018 03:00:00 3,0 3,0 5 3 W - 0,2 -
18.02.2018 02:00:00 2,0 2,0 5 3 N - 0,3 -
18.02.2018 01:00:00 1,6 1,6 2 1 - 1017,4 0,3 -
18.02.2018 00:00:00 2,0 2,0 4 2 NNW - 0,8 -
17.02.2018 23:00:00 4,0 4,0 2 1 - - 1,6 -
17.02.2018 22:00:00 4,0 4,0 2 1 - - 2,5 -
17.02.2018 21:00:00 5,0 4,0 5 3 SW - 3,5 -
17.02.2018 20:00:00 5,0 4,0 4 2 - - 3,5 -
17.02.2018 19:00:00 5,1 4,3 2 1 - 1018,7 3,5 -
17.02.2018 18:00:00 5,0 4,0 2 1 - - 3,2 -
17.02.2018 17:00:00 6,0 4,0 4 2 NNE - 3,5 -
17.02.2018 16:00:00 5,5 4,4 4 2 - 1019,3 3,0 0,0
17.02.2018 15:00:00 6,0 4,0 4 2 - - 2,2 -
17.02.2018 14:00:00 5,0 4,0 4 2 - - 2,5 -
17.02.2018 13:00:00 5,3 3,7 4 2 - 1021,5 2,5 -
17.02.2018 12:00:00 5,0 3,0 4 2 - - 2,4 -
17.02.2018 11:00:00 5,0 2,0 2 1 - - 2,4 -
17.02.2018 10:00:00 4,1 1,9 4 2 - 1023,2 1,8 0,0
17.02.2018 09:00:00 4,0 2,0 5 3 SE - 2,2 -
17.02.2018 08:00:00 4,0 0,0 5 3 N - 3,5 -
17.02.2018 07:00:00 3,9 0,1 4 2 - 1024,1 6 -
17.02.2018 06:00:00 4,0 1,0 4 2 SSW - 6 -
17.02.2018 05:00:00 4,0 1,0 2 1 - - 7 -
17.02.2018 04:00:00 3,4 0,0 4 2 ENE 1024,9 7 0,0
17.02.2018 03:00:00 4,0 0,0 4 2 NNW - 7 -
17.02.2018 02:00:00 4,0 0,0 5 3 WNW - 6 -
17.02.2018 01:00:00 3,8 0,3 8 4 NNW 1025,8 7 -
17.02.2018 00:00:00 3,0 0,0 5 3 N - 7 -
16.02.2018 23:00:00 3,0 -2,0 4 2 - - 7 -
16.02.2018 22:00:00 2,3 -1,8 2 1 - 1024,3 10 0,0
16.02.2018 21:00:00 5,0 -2,0 5 3 NNW - 10 -

tt = Température de l'air
td = dewpoint
ff = Vitesse du vent
dd = Direction du vent
ppp = reduced air pressure
vv = visibility
rr = Quantités de précipitations

stations d'obs. à proximité